Regional Weather Roundup
Issued by NWS

Home | Current Version | Previous Version | Graphics & Text | Print | Product List | Glossary On
Versions: 1 2 3 4 5 6 7 8 9 10 11 12 13 14 15 16 17 18 19 20 21 22 23 24 25 26 27 28 29 30 31 32 33 34 35 36 37 38 39 40 41 42 43 44 45 46 47 48 49 50
000
ASUS43 KMPX 061210
RWRMN
WEATHER ROUNDUP FOR MINNESOTA
NATIONAL WEATHER SERVICE TWIN CITIES/CHANHASSEN MN
700 AM CDT WED MAY 06 2015


NOTE: "FAIR" INDICATES FEW OR NO CLOUDS BELOW 12,000 FEET WITH NO
SIGNIFICANT WEATHER AND/OR OBSTRUCTIONS TO VISIBILITY. N/A MEANS
CURRENT SKY AND/OR WEATHER CONDITIONS ARE NOT AVAILABLE.

MNZ060>063-068>070-061300-
   Twin Cities Metro

CITY           SKY/WX    TMP DP  RH WIND       PRES   REMARKS
TWIN CITIES    CLOUDY    56  54  93 SE10      30.07R FOG
6HR MIN TEMP:  56; 6HR MAX TEMP:  56; 6HR PCP: TRACE;

ST PAUL        CLOUDY    55  54  96 E9        30.08S FOG
CRYSTAL        FOG       57  54  89 SE7       30.06R VSB 1
BLAINE         FOG       55  55 100 E10       30.06F VSB 1
LAKEVILLE      FOG       54  54 100 MISG      30.07R VSB 3/4
EDEN PRAIRIE   FOG       56  54  93 SE10      30.06R VSB 1
6HR MIN TEMP:  55; 6HR MAX TEMP:  56; 6HR PCP: TRACE;

SOUTH ST PAUL  CLOUDY    56  55  94 SE7       30.08R FOG
LAKE ELMO      CLOUDY    54  54 100 SE5       30.09S FOG
$$
MNZ001>005-007-008-013>017-022>024-027-028-061300-
   Northwest Minnesota

CITY           SKY/WX    TMP DP  RH WIND       PRES   REMARKS
BEMIDJI        CLOUDY    56  49  78 SE9       30.00F
HALLOCK        MOCLDY    59  46  63 SE13      29.92S
ROSEAU         MOCLDY    57  45  62 SE12      29.97S
WARROAD        CLEAR     52  45  76 E5        29.99F
THIEF RVR FALL CLOUDY    57  46  67 E10       29.96S
CROOKSTON      CLOUDY    61  55  82 S13       29.94S
FOSSTON        CLOUDY    57  48  72 SE8       29.97S
DETROIT LAKES  CLOUDY    57  54  88 SE14      29.98S
MOORHEAD       CLOUDY    57  55  94 S17       29.95R FOG
PARK RAPIDS    CLOUDY    58  52  80 SE12      30.00F
MAHNOMEN       FAIR      58  54  86 SE8       29.96S
$$
MNZ006-009>011-018-025>026-061300-
   North Central Minnesota

CITY           SKY/WX    TMP DP  RH WIND       PRES   REMARKS
BAUDETTE       PTCLDY    50  32  50 SE10      30.02S
FLAG ISLAND    CLEAR     54  39  58 SE6       30.00R
INTL FALLS     SUNNY     47  32  56 SE8       30.07S
6HR MIN TEMP:  42; 6HR MAX TEMP:  54;

WASKISH        CLOUDY    50  37  62 CALM      30.02S
BIG FORK       HVY RAIN  54  37  54 S5        30.06S
LONGVILLE      CLOUDY    55  52  88 SE6       30.03S
GRAND RAPIDS   CLOUDY    48  39  71 E5        30.07S
CRANE LAKE     SUNNY     45  30  57 CALM      30.11S
ORR            MOSUNNY   50  28  43 SE7       30.07R
COOK           MOSUNNY   46  30  53 CALM      30.10S
WALKER         CLOUDY    56  50  80 SE5       30.02R
$$
MNZ012-019>021-037-061300-
   Northeast Minnesota

CITY           SKY/WX    TMP DP  RH WIND       PRES   REMARKS
DULUTH         LGT RAIN  46  38  73 SE8       30.11S
6HR MIN TEMP:  45; 6HR MAX TEMP:  52; 6HR PCP: TRACE;

ELY            MOSUNNY   41  30  65 CALM      30.12S
HIBBING        CLOUDY    49  36  61 SE7       30.09S
EVELETH        CLOUDY    48  34  57 CALM      30.11S
DULUTH HARBOR    N/A     41  37  87 NE5       30.14S
TWO HARBORS    CLOUDY    54  36  50 NE5       30.12R
SILVER BAY     CLOUDY    52  30  43 NE5       30.12S
GRAND MARAIS     N/A     45  31  58 NE3       30.18R
G MARAIS ARPRT MOSUNNY   52  25  35 SE3       30.17S
$$
MNZ029>031-032-039>041-046>048-054>057-064-061300-
   West Central Minnesota

CITY           SKY/WX    TMP DP  RH WIND       PRES   REMARKS
FERGUS FALLS   CLOUDY    57  55  94 SE13      29.97F
WHEATON        LGT RAIN  54  52  94 SE17      29.96S
MORRIS         CLOUDY    55  54  94 SE17      29.97S FOG
ALEXANDRIA     FOG       54  53  97 SE12      30.01S VSB 1/2
ELBOW LAKE     CLOUDY    55  54  96 SE13G23   29.97R FOG
WADENA         CLOUDY    55  54  94 SE13      30.01R FOG
GLENWOOD       CLOUDY    54  54 100 SE13      30.01R VSB 3/4
APPLETON       CLOUDY    57  54  88 SE13      29.97S FOG
BENSON         CLOUDY    55  54  94 S13       29.99S FOG
ORTONVILLE     CLOUDY    55  54  94 SE16      29.95S FOG
MADISON        LGT RAIN  57  55  94 SE15      29.95F VSB 1
WILLMAR        FOG       55  55 100 SE15      30.02S VSB 1/2
$$
MNZ033>034-036-042>043-049>051-058-059-061300-
   Central Minnesota

CITY           SKY/WX    TMP DP  RH WIND       PRES   REMARKS
ST CLOUD       FOG       55  54  96 SE9       30.04S VSB 3/4
6HR MIN TEMP:  55; 6HR MAX TEMP:  57;

SAUK CENTRE    CLOUDY    55  54  97 SE13      30.02R FOG
PAYNESVILLE    FOG       52  52 100 E14       30.03R VSB 1
AITKIN         CLOUDY    57  50  77 SE5       30.04S
PINE RIVER     CLOUDY    55  52  88 SE10      30.06S
BRAINERD       CLOUDY    55  52  89 SE7       30.05R
STAPLES        CLOUDY    55  52  88 SE10      30.02R FOG
LONG PRAIRIE   FOG       54  54 100 E8        30.02S VSB 1
LITTLE FALLS   FOG       54  52  94 SE7       30.04S VSB 1
LITCHFIELD     FOG       55  55 100 SE9       30.04R VSB 3/4
BUFFALO        CLOUDY    55  53  93 E7        30.06R FOG
MAPLE LAKE     FOG       56  56  97 SE7       30.05S VSB 3/4
$$
MNZ037-044-045-052-053-061300-
   East Central Minnesota

CITY           SKY/WX    TMP DP  RH WIND       PRES   REMARKS
PRINCETON      CLOUDY    55  54  94 E6        30.06S FOG
MORA           CLOUDY    52  48  87 SE5       30.10R
CAMBRIDGE      CLOUDY    55  48  76 E8        30.06R
RUSH CITY      CLOUDY    54  50  87 SE7       30.09R
MOOSE LAKE     CLOUDY    45  41  87 NE3       30.08S
HINCKLEY       CLOUDY    54  52  94 E7        30.09S
CLOQUET        CLOUDY    45  41  87 E6        30.10S
MCGREGOR       CLOUDY    54  46  76 E7        30.07S
$$
MNZ071>073-080-081-089-090-097-098-061300-
   Southwest Minnesota

CITY           SKY/WX    TMP DP  RH WIND       PRES   REMARKS
MONTEVIDEO     FOG       55  55 100 S15       29.98S VSB 1
GRANITE FALLS  FOG       56  55  99 E12G20    29.99F VSB 1/2
CANBY          FOG       57  56  95 SE9       29.96S VSB 1/2
MARSHALL       CLOUDY    57  54  88 SE14      29.96S
REDWOOD FALLS  FOG       57  56  96 SE12      30.00S VSB 1/2
OLIVIA         FOG       54  52  94 SE12      30.01R VSB 1/4
PIPESTONE      CLOUDY    61  59  94 SE16      29.93S
WORTHINGTON    CLOUDY    61  57  88 SE13      29.96F
JACKSON        LGT RAIN  61  59  94 SE9       30.00S VSB 1/4
TRACY          CLOUDY    60  59  98 SE12      29.97S FOG
SLAYTON        LGT RAIN  59  59 100 SE13      29.97S
$$
MNZ065>067-074>077-082>085-091>093-061300-
   South Central Minnesota

CITY           SKY/WX    TMP DP  RH WIND       PRES   REMARKS
MANKATO        CLOUDY    57  55  94 SE12      30.04S
NEW ULM        CLOUDY    57  57 100 SE9       30.02S FOG
ST JAMES       CLOUDY    59  57  94 E8        30.02S FOG
FAIRMONT       CLOUDY    59  54  82 SE10      30.00S
GLENCOE        FOG       56  56 100 SE10      30.04R VSB 1
FARIBAULT      CLOUDY    55  55 100 SE13      30.07R FOG
OWATONNA       CLOUDY    55  54  94 SE13      30.06S FOG
WASECA         CLOUDY    55  55 100 SE12      30.06S FOG
ALBERT LEA     FOG       55  55 100 SE10G16   30.06R VSB 1/2
$$
MNZ078>079-086>088-094>096-061300-
   Southeast Minnesota

CITY           SKY/WX    TMP DP  RH WIND       PRES   REMARKS
ROCHESTER      FOG       54  54 100 SE14      30.10R VSB 1/4
6HR MIN TEMP:  53; 6HR MAX TEMP:  54;

RED WING       CLOUDY    55  54  94 SE13      30.08S FOG
STANTON        CLOUDY    56  54  92 SE8       30.07R FOG
DODGE CENTER   FOG       55  55 100 SE13      30.08S VSB 1/2
WINONA         CLOUDY    54  54 100 SE6       30.12R FOG
AUSTIN         FOG       54  54 100 SE9       30.08R VSB 1/4
PRESTON        FOG       53  52  97 SE9       30.11R VSB<1/4
$$
ABBREVIATIONS USED IN REMARKS
   TC - TEMPERATURES IN CELSIUS
  WCI - WIND CHILL INDEX
   HX - HEAT INDEX
  VSB - VISIBILITY
$$


USA.gov is the U.S. government's official web portal to all federal, state and local government web resources and services.